This is the latest recevied weather packets stored in our database for station/object KI5NXU. If no packets are shown the sender has not sent any weather packets the latest 1 day(s).
| Time | Temp. | Humidity | Pressure | Rain* | Wind** | Luminosity | Snow |
|---|---|---|---|---|---|---|---|
| 1778078527 | 11.11° C | 81% | 1015.6 hPa | 0 mm | - | 64 W/m² | - |
| 1778077318 | 11.11° C | 83% | 1015.8 hPa | 0 mm | - | 19 W/m² | - |
| 1778075805 | 11.11° C | 87% | 1014.3 hPa | 0 mm | - | 31 W/m² | - |
| 1778075501 | 11.11° C | 87% | 1014 hPa | 0 mm | - | 33 W/m² | - |
| 1778074591 | 11.11° C | 87% | 1014 hPa | 0 mm | - | 43 W/m² | - |
| 1778074288 | 10.56° C | 86% | 1014.3 hPa | 0 mm | - | 37 W/m² | - |
| 1778073682 | 10.56° C | 87% | 1014.7 hPa | 0 mm | - | 18 W/m² | - |
| 1778072773 | 10.56° C | 88% | 1014.1 hPa | 0 mm | - | 12 W/m² | - |
| 1778071866 | 10.56° C | 86% | 1013.3 hPa | 0 mm | - | 22 W/m² | - |
| 1778071261 | 11.11° C | 86% | 1013.2 hPa | 0 mm | - | 21 W/m² | - |
| 1778070657 | 11.11° C | 86% | 1012.8 hPa | 0 mm | - | 23 W/m² | - |
| 1778068236 | 11.67° C | 84% | 1012.3 hPa | 0 mm | - | 0 W/m² | - |
| 1778067026 | 11.67° C | 84% | 1012.3 hPa | 0 mm | - | 0 W/m² | - |
| 1778066118 | 11.67° C | 83% | 1012.5 hPa | 0 mm | - | 0 W/m² | - |
| 1778064905 | 11.67° C | 82% | 1012.2 hPa | 0 mm | - | 0 W/m² | - |
| 1778063392 | 11.67° C | 82% | 1011.9 hPa | 0 mm | - | 0 W/m² | - |
| 1778063090 | 11.67° C | 82% | 1011.7 hPa | 0 mm | - | 0 W/m² | - |
| 1778062787 | 11.67° C | 82% | 1011.6 hPa | 0 mm | - | 0 W/m² | - |
| 1778062181 | 11.67° C | 83% | 1011.5 hPa | 0 mm | - | 0 W/m² | - |
| 1778061577 | 11.67° C | 82% | 1011.5 hPa | 0 mm | - | 0 W/m² | - |
| 1778060971 | 11.67° C | 83% | 1011.3 hPa | 0 mm | - | 0 W/m² | - |
| 1778060670 | 11.67° C | 84% | 1011.4 hPa | 0 mm | - | 0 W/m² | - |
| 1778060367 | 11.67° C | 84% | 1011.1 hPa | 0 mm | - | 0 W/m² | - |
| 1778060065 | 11.67° C | 84% | 1011.1 hPa | 0 mm | - | 0 W/m² | - |
| 1778059460 | 11.67° C | 83% | 1011.1 hPa | 0 mm | - | 0 W/m² | - |
* Rain latest hour (hover to see other rain measurements)
** Current wind speed in m/s (hover to see current wind gust speed)